Location: New Canada
(47.1017°N, 68.5042°W)
Time: 07:31:12
(UTC+00:00)

EO-79 - Pass Details

Date: 07 April 2023
Orbit: 578 x 593 km, 98.0° (Epoch: 03 June)

Event Time Altitude Azimuth Distance (km) Brightness Sun altitude
Rises 08:11:19 0° 358° (N) 2,824 ? -18.2°
Reaches altitude 10° 08:14:11 10° 336° (NNW) 1,914 ? -17.8°
Maximum altitude 08:16:40 16° 299° (WNW) 1,570 ? -17.5°
Enters shadow 08:16:43 16° 298° (WNW) 1,570 ? -17.5°
